Location: Prickwillow
(52.4167°N, 0.3500°E)
Time: 05:16:42
(UTC+00:00)

Daily predictions for brighter satellites

Satellite Brightness Start Highest point End
(mag) Time Altitude Azimuth Time Altitude Azimuth Time Altitude Azimuth
ACS3 Solar Sail 4.4 01:19:04 10° NNE 01:19:32 12° NNE 01:19:32 12° NNE
CENTAUR R/B 4.4 01:53:24 30° NNE 01:53:24 30° NNE 01:57:42 10° NE
USA 215 4.3 02:31:32 10° ENE 02:35:38 40° ENE 02:35:38 40° ENE
Cosmos 2263 Rocket 4.3 02:45:16 22° ENE 02:45:16 22° ENE 02:47:53 10° E
Cosmos 2369 Rocket 4.3 03:00:35 20° N 03:00:35 20° N 03:02:36 10° NNE
Cosmos 2344 4.4 03:02:17 48° SE 03:02:17 48° SE 03:09:33 10° SE
ADEOS II 4.1 02:57:27 10° NNE 02:59:21 23° NNE 02:59:21 23° NNE
CZ-2D R/B 4.1 02:57:34 10° NNE 02:59:34 23° NNE 02:59:34 23° NNE
ACS3 Solar Sail 3.7 03:01:37 10° N 03:03:17 19° N 03:03:17 19° N
Resurs 1-4 Rocket 4.0 03:24:31 10° N 03:26:18 21° N 03:26:18 21° N
Cosmos 1821 Rocket 4.4 03:31:02 56° NE 03:31:02 56° NE 03:35:52 10° NNE
USA 238 DEB 3.8 03:33:16 65° NE 03:33:16 65° NE 03:39:10 10° NE
USA 238 3.8 03:33:23 66° NE 03:33:23 66° NE 03:39:18 10° NE
SL-16 R/B 4.2 03:43:57 21° NNW 03:43:57 21° NNW 03:45:50 10° NNW
CZ-2C R/B 3.8 03:37:24 10° NNE 03:41:41 33° E 03:41:54 33° ESE
CENTAUR R/B 3.9 03:40:28 31° NNW 03:42:35 37° N 03:50:21 10° ENE
H-2A R/B 3.5 03:39:07 10° NNE 03:41:47 30° N 03:41:47 30° N
Cosmos 1980 Rocket 3.9 03:47:10 20° SE 03:49:47 28° ESE 03:54:29 10° NE
Cosmos 1697 Rocket 2.9 03:59:01 64° ESE 03:59:07 64° ESE 04:04:45 10° NE
ARGOS 3.3 03:54:34 10° NNE 03:59:30 71° NE 03:59:30 71° NE
COSMOS 2455 3.7 04:00:20 37° SSE 04:02:00 46° ESE 04:07:43 10° NE
USA 59 Rocket 2.4 04:04:34 14° ENE 04:04:34 14° ENE 04:05:03 10° ENE
NOSS 3-2 (C) 4.3 04:02:15 37° NNW 04:02:26 37° NNW 04:08:47 10° NE
Cosmos 2239 Rocket 4.4 04:04:01 64° S 04:05:03 83° E 04:11:18 10° NNE
BREEZE-M DEB (TANK) 4.5 04:05:21 63° WSW 04:06:34 74° S 04:27:46 10° ESE
Meteor 1-11 4.3 04:04:03 10° NNW 04:09:57 78° ENE 04:15:50 10° SSE
Lacrosse 4 Rocket 4.0 04:17:52 10° N 04:19:08 12° NNE 04:20:35 10° NE
Cosmos 1000 Rocket 4.4 04:13:15 10° NNW 04:27:34 - S 04:19:24 67° W
USA 215 3.4 04:14:10 10° E 04:20:42 72° NNE 04:22:59 43° NW
PAYLOAD A 4.5 04:15:38 10° NNE 04:20:54 62° ESE 04:23:55 26° S
Cosmos 2219 3.4 04:18:36 25° NNW 04:22:03 71° NE 04:27:43 10° SE
Cosmos 2263 Rocket 2.0 04:27:01 71° WNW 04:27:28 75° WSW 04:33:05 10° SSE
Cosmos 1656 4.4 04:28:23 38° NNW 04:28:23 38° NNW 04:32:59 10° NNE
Cosmos 2123 Rocket 3.8 04:27:36 10° NNW 04:33:50 73° W 04:39:59 10° S
SKYMED 2 4.3 04:32:43 10° SE 04:36:57 53° ENE 04:41:12 10° N
Cosmos 1733 Rocket 3.5 04:42:18 46° NNW 04:42:18 46° NNW 04:45:32 10° N
ADEOS II 3.6 04:37:37 10° N 04:40:11 22° NNW 04:40:11 22° NNW
CZ-2D R/B 3.8 04:38:23 10° N 04:40:48 19° NNW 04:40:48 19° NNW
Cosmos 2369 Rocket 4.2 04:42:20 13° NNW 04:43:27 14° NNW 04:46:18 10° NNE
ACS3 Solar Sail 3.8 04:46:34 10° NNW 04:47:03 11° NNW 04:47:03 11° NNW
Cosmos 2082 3.6 04:44:20 15° NNW 04:49:09 88° ENE 04:54:50 10° SSE
H-2A R/B 4.1 04:45:45 10° N 04:46:45 15° NNW 04:46:45 15° NNW
ADEOS Rocket 4.5 04:46:59 10° N 04:49:28 17° NW 04:49:28 17° NW
Cosmos 1812 4.4 04:51:38 17° ESE 04:52:18 19° E 04:54:05 10° NE
Cosmos 1025 Rocket 2.8 04:48:14 10° NNW 04:52:37 76° W 04:56:57 10° S
Exosat Rocket 4.3 04:58:23 33° SW 04:58:23 33° SW 05:01:36 10° S
Cosmos 1934 Rocket 3.9 04:55:52 12° SSW 05:01:31 68° WNW 05:07:47 10° N
Molniya-1 4.2 05:00:37 44° WNW 05:01:46 57° NNW 05:11:54 10° NE
BREEZE-M DEB (TANK) 3.9 04:59:51 30° SW 05:02:29 54° S 05:07:52 10° E
Cosmos 2227 Rocket 3.9 05:05:54 17° SSW 05:05:54 17° SSW 05:07:22 10° SSW
SL-16 R/B 4.5 04:58:21 10° SSE 05:02:49 24° ESE 05:07:17 10° NE
COSMO-SKYMED 1 3.1 04:58:54 10° SSE 05:02:55 56° ENE 05:06:58 10° N
Cosmos 2221 Rocket 3.5 05:00:33 10° NNW 05:05:06 75° W 05:09:36 10° S
H-2A R/B 3.3 05:02:13 10° NNE 05:06:03 76° ESE 05:09:42 11° S
BREEZE-M R/B 2.8 05:07:00 43° SE 05:07:00 43° SE 05:08:58 10° ESE
Resurs 1-4 Rocket 4.1 05:06:01 10° NNW 05:07:21 13° NW 05:07:21 13° NW
Cosmos 1400 Rocket 3.6 05:06:12 10° S 05:09:52 49° E 05:13:35 10° NNE
NOSS 2-1 (D) 3.1 05:13:36 46° NNW 05:13:36 46° NNW 05:16:12 10° NE
GP-B 4.0 05:11:07 10° N 05:15:24 50° E 05:19:39 10° SSE
Cosmos 2333 Rocket 4.5 05:14:30 10° SSE 05:19:09 26° ESE 05:23:47 10° NE
IRS-1D 3.8 05:14:00 10° NNE 05:19:13 70° ESE 05:24:18 10° S
CZ-2C R/B 2.8 05:15:25 10° N 05:19:47 39° WNW 05:21:07 32° WSW
Cosmos 1869 4.3 05:16:31 10° SSE 05:19:53 42° E 05:23:14 10° NNE
H-2A R/B 3.8 05:19:42 10° NNW 05:22:16 16° NW 05:22:16 16° NW
SL-08 RB Rocket 4.4 05:19:06 10° N 05:23:09 31° WNW 05:23:33 31° WNW
USA 238 DEB 4.4 05:20:41 24° WNW 05:24:00 39° NNW 05:30:42 10° NE
USA 238 4.4 05:20:48 24° WNW 05:24:07 39° NNW 05:30:49 10° NE
Cosmos 1939 Rocket 3.0 05:20:48 10° N 05:24:28 45° WNW 05:25:29 35° WSW
Cosmos 1300 Rocket 3.8 05:20:32 10° S 05:24:54 71° E 05:29:19 10° NNE
NOSS 2-1 (C) 3.1 05:25:32 41° NW 05:25:42 42° NW 05:28:33 10° NE
Cosmos 1503 Rocket 3.9 05:21:24 15° SW 05:25:47 70° WNW 05:31:04 10° NNE
ISS -1.7 05:24:33 14° SSW 05:26:40 23° SSE 05:29:25 10° E
Cosmos 1605 Rocket 4.0 05:20:50 10° SSW 05:27:13 74° WNW 05:33:35 10° N
CZ-4 R/B 4.3 05:22:23 10° NNE 05:27:22 67° ESE 05:32:18 10° S
Cosmos 1538 Rocket 4.0 05:22:05 10° NNW 05:27:27 87° ENE 05:32:43 10° SSE
Cosmos 1943 Rocket 4.5 05:24:43 10° NNW 05:28:14 17° NNE 05:31:45 10° ENE
NOSS 2-1 (E) 3.1 05:30:30 39° WNW 05:31:04 44° NW 05:34:00 10° NE
Cosmos 1461 2.9 05:29:19 19° NW 05:31:54 65° NE 05:35:32 10° SE
Cosmos 1980 Rocket 2.2 05:28:58 16° SW 05:33:23 62° NW 05:38:59 10° NNE
Cosmos 1346 Rocket 2.7 05:29:44 10° N 05:33:26 77° ENE 05:37:06 10° SSE
CENTAUR R/B 3.8 05:27:33 11° NW 05:34:51 55° NNE 05:43:46 10° ESE
Cosmos 1844 Rocket 2.7 05:30:05 10° NNW 05:35:47 85° ENE 05:41:26 10° SSE
Meteor 2-17 Rocket 4.5 05:32:28 10° N 05:38:34 86° ENE 05:44:40 10° S
ARGOS 4.3 05:35:34 10° N 05:39:42 23° NW 05:40:59 21° WNW
IGS 5A 4.1 05:38:16 10° NNE 05:42:11 54° E 05:46:05 10° S
Cosmos 1697 Rocket 3.5 05:40:45 22° W 05:43:29 32° NW 05:48:35 10° NNE
Cosmos 1777 Rocket 4.3 05:41:45 16° WSW 05:45:36 43° NW 05:50:35 10° NNE
COSMOS 2455 3.1 05:43:29 17° WSW 05:47:56 50° NW 05:53:50 10° NE
Cosmos 1484 Rocket 4.0 05:44:37 10° NNE 05:47:58 41° E 05:51:17 10° S
USA 59 Rocket 0.5 05:50:10 21° NW 05:50:54 24° NNW 05:53:23 10° NNE
NOSS 3-1 (C) 3.1 05:48:12 15° WSW 05:52:19 67° NW 05:58:22 10° NE
Cosmos 2278 Rocket 4.3 05:49:54 10° NNW 05:53:58 19° NNE 05:58:00 10° ENE
NOAA 12 4.1 05:51:23 10° N 05:56:34 58° WNW 06:01:45 10° SW
Cosmos 923 Rocket 4.3 05:51:46 10° NNW 05:57:03 73° ENE 06:02:21 10° SSE
Lacrosse 4 Rocket 2.7 05:54:24 10° NNW 05:58:02 35° NE 06:01:42 10° ESE
NOSS 2-2 (C) 4.2 05:57:07 10° NW 06:00:26 43° NE 06:04:43 10° ESE
Cosmos 2237 4.2 05:55:04 10° SSW 06:00:46 85° WNW 06:06:31 10° NNE
NOSS 3-1 (A) 3.2 05:56:11 10° SW 06:00:55 74° SE 06:06:48 10° NE
Cosmos 1680 Rocket 4.0 05:57:41 10° NNW 06:02:59 63° ENE 06:08:13 10° SE
Cosmos 1602 3.5 06:00:28 10° NNW 06:03:01 32° W 06:05:33 10° SSW
Cosmos 2360 Rocket 4.0 05:58:21 10° S 06:03:22 35° ESE 06:08:26 10° NE
USA 215 3.4 05:57:21 10° SE 06:03:51 62° SW 06:10:20 10° WNW
Cosmos 372 Rocket 4.1 06:00:03 10° SSW 06:05:07 80° ESE 06:10:17 10° NNE
Cosmos 2219 4.2 06:01:07 10° NW 06:05:41 25° WSW 06:10:11 10° SSW
Cosmos 1862 3.0 06:05:13 10° N 06:08:48 86° E 06:12:23 10° S
Cosmos 1975 Rocket 3.1 06:05:13 10° NNW 06:09:23 51° W 06:13:32 10° S
Cosmos 405 Rocket 3.9 06:06:59 10° N 06:09:55 35° ENE 06:12:51 10° SE
Cosmos 2263 Rocket 3.7 06:08:46 13° WNW 06:10:24 15° W 06:13:24 10° SW
Cosmos 2227 4.4 06:05:57 10° NW 06:11:26 53° WSW 06:16:55 10° S
Helios 1A Rocket 2.2 06:09:13 10° S 06:12:28 71° WSW 06:15:45 10° NNW
Cosmos 1802 Rocket 4.3 06:13:03 10° S 06:19:15 77° E 06:25:35 10° NNE
Cosmos 1782 Rocket 3.9 06:15:14 10° SW 06:19:26 43° WNW 06:23:42 10° N
MOS 1 Rocket 3.6 06:15:20 10° NNE 06:19:41 69° ESE 06:24:12 10° S
Cosmos 1354 Rocket 4.5 06:17:06 10° WSW 06:22:00 39° NW 06:26:57 10° NNE
Cosmos 1812 3.2 06:21:47 11° WSW 06:23:02 15° WNW 06:24:34 10° NNW
Cosmos 1898 Rocket 3.6 06:18:10 10° SSW 06:23:29 88° ESE 06:28:51 10° NNE
Cosmos 990 Rocket 4.5 06:20:37 10° WSW 06:25:31 39° NW 06:30:27 10° NNE
Cosmos 1725 Rocket 4.2 06:19:54 10° S 06:26:04 78° E 06:32:16 10° NNE
Landsat 7 4.1 06:24:35 10° NNE 06:29:15 73° ESE 06:33:54 10° S
Cosmos 2369 Rocket 4.4 06:27:42 10° NNW 06:30:09 13° NNE 06:32:36 10° NE
Cosmos 1315 Rocket 3.6 06:29:23 10° S 06:33:00 53° E 06:36:41 10° NNE
Cosmos 1937 Rocket 3.7 06:28:35 10° SSW 06:33:44 81° ESE 06:39:00 10° NNE
CRYOSAT 2 4.4 06:30:42 10° S 06:35:35 89° W 06:40:31 10° N
Cosmos 2173 Rocket 4.1 06:29:39 10° SSW 06:35:59 64° WNW 06:42:19 10° N
COSMO-SKYMED 1 3.8 06:35:37 10° SW 06:38:32 19° W 06:41:28 10° NW
Cosmos 2369 4.2 06:34:35 10° WSW 06:39:55 41° NW 06:45:17 10° NNE
